CW2840 Weather Reports


Display with metric or nautical units.
time (UTC)temp
F
wind
direction
speed
MPH
gust
MPH
rain 1hr
in
rain 24hr
in
rain mn
in
humidity
%
barometer
mb
20260902215902 93 148 4.0 14.0 0.00 0.26 0.01 52 1011.2
20260902214403 93 185 5.0 18.0 0.00 0.33 0.01 52 1011.3
20260902212902 93 190 5.0 18.0 0.00 0.33 0.01 52 1011.2
20260902212759 94 135 6.0 16.0 0.00 0.33 0.01 53 1011.4
20260902211634 94 166 5.0 13.0 0.00 0.33 0.01 53 1011.7
20260902211233 95 159 6.0 20.0 0.00 0.33 0.01 51 1011.7
20260902202901 95 155 10.0 18.0 0.00 0.33 0.01 52 1011.9
20260902201400 94 127 7.0 18.0 0.00 0.33 0.01 53 1012.2
20260902195900 94 176 4.0 24.0 0.00 0.33 0.01 53 1012.0
20260902194401 94 147 8.0 18.0 0.00 0.33 0.01 54 1012.4
20260902193555 93 197 4.0 16.0 0.00 0.33 0.01 54 1012.7
20260902191400 93 223 9.0 22.0 0.00 0.33 0.01 56 1012.8
20260902185900 93 195 3.0 16.0 0.00 0.33 0.01 58 1012.9
20260902184358 92 212 4.0 20.0 0.00 0.33 0.01 58 1013.2
20260902182858 92 252 5.0 20.0 0.00 0.33 0.01 63 1013.5
20260902181357 91 144 5.0 11.0 0.00 0.33 0.01 64 1013.8
20260902175855 90 162 4.0 13.0 0.00 0.33 0.01 67 1014.2
20260902174353 89 258 2.0 13.0 0.00 0.33 0.01 69 1014.5
20260902173545 89 276 6.0 13.0 0.00 0.33 0.01 70 1014.8
20260902171349 87 195 5.0 14.0 0.00 0.33 0.01 71 1015.0
20260902165847 87 261 5.0 22.0 0.00 0.33 0.01 72 1015.3
20260902164345 86 290 3.0 11.0 0.00 0.33 0.01 74 1015.4
20260902162844 85 258 4.0 16.0 0.00 0.33 0.01 75 1015.4
20260902161341 85 264 3.0 14.0 0.00 0.33 0.01 76 1015.5
20260902155840 85 168 4.0 14.0 0.00 0.33 0.01 78 1015.3
20260902154337 84 259 6.0 24.0 0.00 0.33 0.01 79 1015.3
20260902152835 83 235 4.0 13.0 0.00 0.33 0.01 80 1015.3
20260902152044 83 275 6.0 16.0 0.00 0.33 0.01 82 1015.1
20260902150534 82 262 3.0 13.0 0.00 0.33 0.01 83 1015.3
20260902144331 81 258 2.0 14.0 0.00 0.33 0.01 83 1015.2
20260902143528 81 265 5.0 14.0 0.00 0.33 0.01 84 1015.3
20260902141331 81 275 2.0 16.0 0.00 0.33 0.01 84 1015.1
20260902135831 81 296 3.0 14.0 0.00 0.33 0.01 85 1014.9
20260902134331 81 251 3.0 11.0 0.00 0.33 0.01 85 1015.1
20260902132831 80 272 3.0 11.0 0.00 0.33 0.01 85 1014.9
20260902131330 80 251 4.0 13.0 0.00 0.33 0.01 85 1014.8
20260902125832 80 268 2.0 13.0 0.00 0.33 0.01 85 1014.6
20260902125042 80 255 3.0 13.0 0.00 0.33 0.01 85 1014.2
20260902122831 80 288 4.0 18.0 0.00 0.33 0.01 85 1014.0
20260902121332 80 188 6.0 16.0 0.00 0.33 0.01 85 1013.5
20260902115831 80 238 5.0 16.0 0.00 0.33 0.01 85 1013.2
20260902115023 81 254 7.0 24.0 0.00 0.33 0.01 85 1013.1
20260902112831 81 269 6.0 24.0 0.00 0.33 0.01 84 1012.9
20260902111329 81 240 6.0 20.0 0.00 0.33 0.01 84 1012.8
20260902105827 81 252 5.0 16.0 0.00 0.33 0.01 85 1012.9
20260902104325 80 231 6.0 13.0 0.00 0.33 0.01 85 1012.8
20260902102823 80 237 4.0 13.0 0.00 0.33 0.01 85 1012.9
20260902102011 80 264 2.0 11.0 0.00 0.33 0.01 86 1013.0
20260902095819 79 247 6.0 11.0 0.01 0.32 0.01 85 1013.0
20260902094318 78 261 2.0 11.0 0.01 0.32 0.01 84 1013.1
20260902092815 78 258 6.0 14.0 0.01 0.32 0.01 84 1013.2
20260902091314 79 251 4.0 13.0 0.01 0.32 0.01 83 1013.0
20260902090506 79 207 3.0 13.0 0.00 0.32 0.00 82 1013.0
20260902084309 79 240 3.0 13.0 0.00 0.32 0.00 81 1012.9
20260902082807 79 247 2.0 11.0 0.00 0.32 0.00 81 1013.1
20260902081305 79 243 4.0 11.0 0.00 0.32 0.00 80 1013.0
20260902075804 79 295 4.0 9.0 0.00 0.32 0.00 81 1013.1
20260902075006 79 254 1.0 11.0 0.00 0.32 0.00 81 1013.1
20260902072805 79 248 5.0 11.0 0.00 0.32 0.00 82 1013.2
20260902071302 79 252 6.0 11.0 0.00 0.32 0.00 82 1013.3
20260902065805 79 247 5.0 13.0 0.00 0.32 0.00 82 1013.3
20260902064302 79 238 2.0 14.0 0.00 0.32 0.00 83 1013.3
20260902062804 78 272 6.0 14.0 0.00 0.32 0.00 84 1013.2
20260902061302 78 259 2.0 9.0 0.00 0.32 0.00 85 1013.4
20260902055803 78 262 5.0 13.0 0.00 0.32 0.00 85 1013.2
20260902054302 78 243 5.0 16.0 0.00 0.32 0.00 85 1013.0
20260902052804 78 259 4.0 9.0 0.00 0.32 0.00 86 1012.9
20260902051302 78 200 2.0 13.0 0.00 0.32 0.00 86 1013.2
20260902045804 78 266 4.0 11.0 0.00 0.32 0.32 87 1013.1
20260902045004 78 272 4.0 11.0 0.00 0.32 0.32 87 1013.3
20260902042758 78 252 2.0 11.0 0.00 0.32 0.32 87 1013.2
20260902041256 78 257 3.0 9.0 0.00 0.32 0.32 88 1013.1
20260902035754 78 250 3.0 9.0 0.00 0.32 0.32 88 1013.2
20260902034252 78 306 1.0 3.0 0.00 0.32 0.32 88 1013.3
20260902032752 78 306 2.0 3.0 0.00 0.32 0.32 88 1013.3
20260902031252 78 307 1.0 2.0 0.00 0.32 0.32 89 1013.4
20260902030448 78 307 0.0 2.0 0.00 0.32 0.32 88 1013.3
20260902024248 78 307 0.0 3.0 0.00 0.32 0.32 88 1013.1
20260902023446 78 307 1.0 3.0 0.00 0.32 0.32 88 1012.9
20260902021245 78 305 0.0 2.0 0.00 0.32 0.32 88 1012.7
20260902015745 78 305 0.0 3.0 0.00 0.32 0.32 88 1012.5
20260902014241 78 305 1.0 3.0 0.00 0.32 0.32 88 1012.6
20260902012741 78 305 1.0 3.0 0.00 0.32 0.32 88 1012.4
20260902011237 78 305 0.0 3.0 0.00 0.32 0.32 89 1012.4
20260902005741 78 305 0.0 2.0 0.00 0.32 0.32 89 1012.4
20260902004235 78 305 0.0 2.0 0.00 0.32 0.32 89 1012.5
20260902002736 78 305 0.0 3.0 0.00 0.32 0.32 89 1012.6
20260902001234 78 305 0.0 3.0 0.01 0.32 0.32 89 1012.8
20260901235736 78 305 1.0 2.0 0.06 0.27 0.32 89 1012.7
20260901234234 78 305 0.0 2.0 0.09 0.27 0.32 89 1012.6
20260901233444 78 305 0.0 3.0 0.14 0.27 0.32 88 1012.6
20260901231233 78 358 2.0 3.0 0.16 0.27 0.30 88 1012.9
20260901230429 77 358 0.0 5.0 0.22 0.07 0.26 87 1013.2
20260901224232 78 358 2.0 7.0 0.23 0.07 0.23 87 1013.6
20260901222734 78 351 3.0 7.0 0.18 0.07 0.18 86 1013.9
20260901221231 78 340 3.0 16.0 0.15 0.07 0.15 84 1014.0